Miscellaneous Local Product
Issued by NWS North Platte, NE

Home | Current Version | Previous Version | Text Only | Print | Product List | Glossary On
Versions: 1 2 3 4 5 6 7 8 9 10 11 12 13 14 15 16 17 18 19 20 21 22 23 24 25 26 27 28 29 30 31 32 33 34 35 36 37 38 39 40 41 42 43 44 45 46 47 48 49 50
000
AXUS43 KLBF 171510
MISLBF


WESTERN AND NORTH CENTRAL NEBRASKA HOURLY WEATHER ROUNDUP
NATIONAL WEATHER SERVICE NORTH PLATTE NE
1000 AM CDT FRI APR 17 2015

***STATIONS NOT REPORTING VARIABLES SUCH AS SKY/WEATHER OR
PRESSURE ARE PROVIDED BY THE NEBRASKA DEPARTMENT OF
ROADS...RAWS...AND APRS NETWORKS...AND ARE NOT UNDER
NATIONAL WEATHER SERVICE QUALITY CONTROL***

...OBSERVATIONS IN AND NEAR THE EASTERN PANHANDLE OF NEBRASKA...

CITY           SKY/WX    TMP DP  RH WIND       PRES   REMARKS
PINE RIDGE     CLOUDY    49  36  61 NE10      30.16F
CHADRON        CLOUDY    45  39  79 N10       30.16F
ALLIANCE       LGT RAIN  44  43  96 NE13      30.11S FOG
SIDNEY         LGT RAIN  47  46  97 E18       30.05S FOG
WHITECLAY        N/A     44  37  74 NE8         N/A
CRESCENT LAKE    N/A     46  45  98 E12G20      N/A
BIG SPRINGS      N/A     50  49  95 E17         N/A
$$

...OBSERVATIONS IN NORTH CENTRAL NEBRASKA...

CITY           SKY/WX    TMP DP  RH WIND       PRES   REMARKS
VALENTINE      CLOUDY    53  38  56 NE12      30.14F
THEDFORD       RAIN      51  49  95 E9        30.12S
AINSWORTH      CLOUDY    52  44  75 NE9       30.13F
O`NEILL        CLOUDY    57  49  76 E5        30.13F
ORD            CLOUDY    55  53  93 S5        30.10F FOG
BROKEN BOW     LGT RAIN  55  53  93 NE14      30.07F FOG
BROWNLEE         N/A     54  47  76 NE9         N/A
SPRINGVIEW       N/A     55  44  66 CALM        N/A
BREWSTER         N/A     54  53  97 E7          N/A
ROSE             N/A     55  54  94 CALM        N/A
NEWPORT          N/A     55  47  72 E5          N/A
SARGENT          N/A     54  53  97 E3          N/A
COMSTOCK         N/A     59  58  99 E12         N/A
EWING            N/A     56  52  86 NE3         N/A
$$

...OBSERVATIONS IN SOUTHWEST NEBRASKA AND FAR NORTHEAST COLORADO...

CITY           SKY/WX    TMP DP  RH WIND       PRES   REMARKS
WRAY           CLOUDY   N/A N/A N/A E9        30.02F
HOLYOKE        CLOUDY    54  52  94 E14G20    30.04S
IMPERIAL       CLOUDY    53  50  89 E10       30.04S
OGALLALA       DRIZZLE   51  50  98 E13       30.06F
NORTH PLATTE   CLOUDY    54  51  90 E12       30.08R
MCCOOK         CLOUDY    55  53  93 E13       30.04R FOG
LEXINGTON      CLOUDY    56  55  94 E10       30.07R FOG
SUTHERLAND       N/A     48  46  93 E13         N/A
BRADY            N/A     53  51  93 N3          N/A
GOTHENBURG       N/A     53  50  91 NE10        N/A
CALLAWAY         N/A     53  52  98 E12         N/A
$$

...NORTH PLATTE AREA...

CITY           SKY/WX    TMP DP  RH WIND       PRES   REMARKS
AIRPORT        CLOUDY    54  51  90 E12       30.08R
DOWNTOWN         N/A     53  51  94 NE7         N/A
$$

...SOME WEATHER OBSERVATIONS FROM AROUND THE REGION...

CITY           SKY/WX    TMP DP  RH WIND       PRES   REMARKS
DENVER         LGT RAIN  36  36 100 NE7       29.99F VSB 1/8 WCI  30
LARAMIE        LGT SNOW  31  30  96 E20       30.06F VSB 3/4 WCI  19
CHEYENNE       LGT SNOW  33  32  96 N16       30.06F VSB 1   WCI  23
SCOTTSBLUFF    RAIN      44  44 100 NE20      30.09F FOG
RAPID CITY     CLOUDY    50  30  46 N9        30.21F
PIERRE         SUNNY     57  35  43 CALM      30.18F
WINNER         FAIR      55  38  52 NE8       30.16S
SIOUX FALLS    MOSUNNY   63  42  46 NE7       30.13F
OMAHA          PTSUNNY   67  55  65 CALM      30.10S
GRAND ISLAND   CLOUDY    57  54  89 E12       30.09F FOG
KANSAS CITY    PTSUNNY   70  57  63 E12       30.06F
WICHITA        CLOUDY    63  59  87 NE17      29.96F
HAYS           CLOUDY    55  48  76 E6        30.03S
LIBERAL        CLOUDY    57  52  82 S17       30.00F
GOODLAND       CLOUDY    51  50  96 E14       30.01S
$$



USA.gov is the U.S. government's official web portal to all federal, state and local government web resources and services.